Location: Dackenheim
(49.5215°N, 8.1854°E)
Time: 11:56:46
(UTC+00:00)

BlueWalker 3 - Pass Details

Date: 29 January 2026
Orbit: 451 x 460 km, 53.2° (Epoch: 17 February)

Event Time Altitude Azimuth Distance (km) Brightness Sun altitude
Rises 17:27:32 0° 266° (W) 2,457 7.4 -11.4°
Reaches altitude 10° 17:29:42 10° 272° (W) 1,585 5.8 -11.7°
Maximum altitude 17:33:11 50° 349° (N) 582 2.2 -12.3°
Enters shadow 17:35:22 20° 59° (ENE) 1,094 3.1 -12.6°
